Location: Arcusa
(42.3167°N, 0.0833°W)
Time: 19:10:14
(UTC+00:00)

Cosmos 1908 - Pass Details

Date: 25 January 2020
Orbit: 511 x 532 km, 82.5° (Epoch: 21 February)

Event Time Altitude Azimuth Distance (km) Brightness Sun altitude
Rises 05:25:26 0° 184° (S) 2,661 6.9 -21.3°
Reaches altitude 10° 05:27:34 10° 184° (S) 1,776 5.9 -20.9°
Maximum altitude 05:31:28 82° 98° (E) 542 3.2 -20.2°
Drops below altitude 10° 05:35:24 10° 10° (N) 1,786 5.9 -19.4°
Sets 05:37:33 0° 9° (N) 2,678 6.8 -19.0°
